Find Starlink 5739

NORAD ID: 55571 Int'l Des: 2023-020 Owner: SPXS Country: US Constellation: starlink operational
LEOCIRCULAR

Live Position

Loading 3D Globe...

About Starlink 5739

Description loading...

Upcoming Passes

Passes for default location (London). Set your location on the main map for personalized predictions.

Altitude History

Loading altitude history...

Two-Line Element Set

1 55571U 23020C 26126.16900894 .00001390 00000-0 60003-4 0 9990
2 55571 43.0041 43.9902 0001701 271.3296 88.7361 15.27590827177669
Epoch: May 6, 2026 • Age: 16 hours

Current Status

Altitude 483.9 km
Velocity 7.63 km/s
Sub-Earth Point 27.67°N, 89.45°W
Launch Date Feb 12, 2023
Age 3.2 years
Type internet

Technical Details

Classification Payload
Mass 305.00 kg
Dry Mass 290.00 kg
Total Mass 305.00 kg
Length 0.20 m
Diameter 2.80 m
Span 9.00 m
Shape Box + pan
Manufacturer SPXS
Bus Type Starlink
Phase Status In Orbit
Owner/State SPXS/US

Most Searched